Hourly Weather Roundup
Issued by NWS

Home | Current Version | Previous Version | Text Only | Print | Product List | Glossary On
Versions: 1 2 3 4 5 6 7 8 9 10 11 12 13 14 15 16 17 18 19 20 21 22 23 24 25 26 27 28 29 30 31 32 33 34 35 36 37 38 39 40 41 42 43 44 45 46 47 48 49 50
063
NZUS43 KILX 241410
HWRCRS

CRS HOURLY WEATHER ROUNDUP
NATIONAL WEATHER SERVICE, LINCOLN IL
900 AM CDT SUN JUL 24 2016


CITY           SKY/WX    TMP DP  RH WIND       PRES   REMARKS
CHAMPAIGN      MOSUNNY   82  77  84 S8        29.98S HAZE    HX  90
LAWRENCEVILLE  SUNNY     82  78  88 S6        29.99R HX  91
PEORIA         MOSUNNY   82  78  88 S10       29.92S HX  91
SPRINGFIELD    MOSUNNY   84  76  76 S9        29.95R HX  93
$$


CITY           SKY/WX    TMP DP  RH WIND       PRES   REMARKS
BLOOMINGTON    CLOUDY    82  77  84 S12       29.97S HX  90
DECATUR        CLOUDY    85  76  74 S13       29.97R HX  94
EFFINGHAM      SUNNY     83  80  89 SE5       30.00R HX  96
FLORA          SUNNY     83  79  87 S5        29.98S HX  95
GALESBURG      SUNNY     83  76  79 S9G16     29.90S HX  92
JACKSONVILLE   MOSUNNY   83  77  80 S9        29.94R HX  92
LACON          SUNNY     83  76  79 SW8       29.90S HX  92
LINCOLN        MOSUNNY   83  78  85 S8        29.95R HX  94
LITCHFIELD     SUNNY     82  76  82 S7        29.98R HX  89

CITY           SKY/WX    TMP DP  RH WIND       PRES   REMARKS
MACOMB         SUNNY     83  77  81 SW7       29.93R HX  93
MATTOON        SUNNY     82  76  81 S7        29.98R HX  89
MOLINE         SUNNY     86  77  74 S8        29.85S HX  97
OLNEY          SUNNY     81  79  94 S5        29.99R HX  89
PARIS          PTSUNNY   83  79  88 CALM      30.01R HX  94
PONTIAC        MOSUNNY   82  79  90 S10       29.94S HX  93
QUINCY         SUNNY     85  76  74 SW10      29.92R HX  94
RANTOUL        NOT AVBL
ROBINSON       SUNNY     83  78  82 S6        29.99S HX  93
TAYLORVILLE    MOSUNNY   82  78  85 NW9       29.97R HX  91
TERRE HAUTE    MOSUNNY   83  76  79 S5        29.99S HX  91
$$


CITY           SKY/WX    TMP DP  RH WIND       PRES   REMARKS
BURLINGTON     SUNNY     83  79  88 S12       29.88S HX  94
CHICAGO        CLOUDY    78  73  84 S12       29.91F HX  81
DES MOINES     CLOUDY    83  75  77 NW9       29.87R HX  90
EVANSVILLE     SUNNY     83  76  79 SW8       29.99S HX  91
INDIANAPOLIS   PTSUNNY   82  73  74 SE7       30.02R HX  87
KANSAS CITY    MOSUNNY   83  72  69 W9        29.93R HX  88
MILWAUKEE      CLOUDY    72  69  90 SE8       29.87F
ST LOUIS       MOSUNNY   87  75  67 S8        29.96R HX  96
$$





USA.gov is the U.S. government's official web portal to all federal, state and local government web resources and services.